THORAD DELTA 1 DEB, 42625

Orbit data source: Space-Track

THORAD DELTA 1 DEB, 42625 is space debris in SSO originally from a launch on Fri, 15 Nov 1974 UTC launched from the Air Force Western Test Range (AFWTR). Debris objects in space refer to the collection of defunct objects orbiting the Earth. Examples of debris include non-operational satellites, rocket bodies, and fragments generated from explosions, collisions, or faulty payload assembly.

Loading next visibility...
Identifier
42625, 1974-089GS
Orbit
SSO
Country
Flag of USUS
Related business
Manufacturer
Unknown
Mission
Spacecraft
Bus & Motor
Unknown
Mass
Unknown
Launch date (UTC)
1974-11-15 (51 years ago)
Launch vehicle
Unknown
Launch site
Air Force Western Test Range (AFWTR)
Object type
Payload
Rocket body
Debris
Shape & HBR
Unknown
Radar Cross Section
Small (<0.1 m²)

Expand to show TLE details & history
Last TLE update: 4 days ago

TLE from 4 days ago
0 THORAD DELTA 1 DEB
1 42625U 74089GS  25257.18939385  .00000103  00000-0  10485-2 0  9998
2 42625 101.9964 229.8620 0005154   5.7915  17.5583 12.44170429537662
Epoch: 2025-09-14T04:32Z
TLE epoch observation values (Epoch: 2025-09-14T04:32:43.628Z)
Latitude
22.84692°
Longitude
163.15703°
Altitude
1,487.558 km
Speed
7.124 km/s
True Right ascension
14h 59m 00s
True Declination
22° 44' 08"
Sunlit
Object was in daylight at epoch
Visualization orbit readout
Latitude
Unknown
Longitude
Unknown
Altitude
Unknown
Speed
Unknown
Apparent Right ascension
Unknown
Apparent Declination
Unknown
Sunlit
N/A
Visualization observer readout
Local Sidereal Time
22:55:28
Azimuth
Unknown
Elevation
Unknown
Doppler factor
Unknown
Orbital elements
Apogee altitude
1,490.596 km
Perigee altitude
1,482.489 km
Semi-major axis
7,864.68 km
Eccentricity
0.00052
Inclination
101.9964°
RAAN
229.862°
Arg. of periapsis
5.7915°
True anomaly
17.57613°
Mean anomaly
17.5583°
Eccentric anomaly
17.56721°
Mean motion
3.11187 °/min
Orbital period
115.69 mins
BSTAR
0.0010485
Loading maneuver chart data...
Computing Atmospheric mass density...

Documentation

Showing up to 5 results
|